Wetterdaten: Woche 07.11.16 - 13.11.16 (KW45)
Datum Zeit Temp. A. Feuchte A. Luftdruck Regen Wind Richtung Sonnenschein ET UV Solar Taupunkt Windchill Windben Empfang
07.11.2016 00:00 2,3 C 98 % 1004,2 hPa 0,4 l/m 4,6 km/h (1 Bft) SW 0,00 h 0,000 mm 0,0 UV-I 0 W/m 1,9 C 2,3 C 6,7 km/h (2 Bft) 97,65 %
07.11.2016 01:00 2,3 C 97 % 1004,3 hPa 0,4 l/m 4,8 km/h (1 Bft) SW 0,00 h 0,000 mm 0,0 UV-I 0 W/m 1,9 C 2,3 C 7,6 km/h (2 Bft) 99,48 %
07.11.2016 02:00 2,3 C 97 % 1004,5 hPa 0,4 l/m 5,8 km/h (2 Bft) SW 0,00 h 0,000 mm 0,0 UV-I 0 W/m 1,8 C 2,2 C 8,6 km/h (2 Bft) 97,83 %
07.11.2016 03:00 2,3 C 97 % 1004,6 hPa 0,0 l/m 6,0 km/h (2 Bft) SW 0,00 h 0,000 mm 0,0 UV-I 0 W/m 1,9 C 2,1 C 9,1 km/h (2 Bft) 99,01 %
07.11.2016 04:00 2,3 C 97 % 1004,9 hPa 0,2 l/m 6,9 km/h (2 Bft) SW 0,00 h 0,000 mm 0,0 UV-I 0 W/m 1,9 C 1,6 C 11,1 km/h (2 Bft) 97,92 %
07.11.2016 05:00 2,3 C 97 % 1005,1 hPa 0,2 l/m 7,4 km/h (2 Bft) SW 0,00 h 0,000 mm 0,0 UV-I 0 W/m 1,8 C 1,3 C 11,9 km/h (2 Bft) 99,22 %
07.11.2016 06:00 2,3 C 97 % 1005,5 hPa 0,2 l/m 7,3 km/h (2 Bft) S-SW 0,00 h 0,000 mm 0,0 UV-I 0 W/m 1,8 C 1,3 C 11,7 km/h (2 Bft) 98,10 %
07.11.2016 07:00 2,4 C 97 % 1006,0 hPa 0,0 l/m 6,3 km/h (2 Bft) SW 0,00 h 0,000 mm 0,0 UV-I 14 W/m 2,0 C 2,2 C 9,5 km/h (2 Bft) 98,90 %
07.11.2016 08:00 2,8 C 96 % 1006,2 hPa 0,0 l/m 6,4 km/h (2 Bft) SW 0,00 h 0,000 mm 0,0 UV-I 84 W/m 2,3 C 2,4 C 10,5 km/h (2 Bft) 98,11 %
07.11.2016 09:00 3,6 C 95 % 1006,5 hPa 0,0 l/m 5,8 km/h (2 Bft) W-SW 0,00 h 0,025 mm 0,0 UV-I 118 W/m 2,8 C 3,2 C 9,4 km/h (2 Bft) 98,58 %
07.11.2016 10:00 3,9 C 94 % 1007,0 hPa 0,0 l/m 4,4 km/h (1 Bft) W-SW 0,00 h 0,051 mm 0,4 UV-I 138 W/m 3,0 C 3,9 C 7,4 km/h (2 Bft) 98,37 %
07.11.2016 11:00 4,4 C 92 % 1007,2 hPa 0,0 l/m 4,2 km/h (1 Bft) W-SW 0,00 h 0,051 mm 0,5 UV-I 170 W/m 3,1 C 4,4 C 8,1 km/h (2 Bft) 98,45 %
07.11.2016 12:00 4,6 C 90 % 1007,5 hPa 0,0 l/m 4,2 km/h (1 Bft) W 0,00 h 0,076 mm 0,5 UV-I 120 W/m 3,0 C 4,5 C 8,4 km/h (2 Bft) 98,87 %
07.11.2016 13:00 4,3 C 89 % 1007,9 hPa 0,0 l/m 4,9 km/h (1 Bft) W 0,00 h 0,051 mm 0,0 UV-I 104 W/m 2,7 C 4,0 C 9,4 km/h (2 Bft) 98,51 %
07.11.2016 14:00 3,5 C 89 % 1008,5 hPa 0,2 l/m 7,1 km/h (2 Bft) W-SW 0,00 h 0,051 mm 0,0 UV-I 61 W/m 1,9 C 2,5 C 12,8 km/h (3 Bft) 98,50 %
07.11.2016 15:00 2,5 C 94 % 1009,2 hPa 0,2 l/m 5,7 km/h (1 Bft) W-SW 0,20 h 0,025 mm 0,0 UV-I 53 W/m 1,7 C 2,3 C 9,9 km/h (2 Bft) 98,11 %
07.11.2016 16:00 2,5 C 94 % 1009,6 hPa 0,0 l/m 5,3 km/h (1 Bft) S-SW 0,13 h 0,026 mm 0,0 UV-I 15 W/m 1,6 C 2,2 C 8,5 km/h (2 Bft) 99,26 %
07.11.2016 17:00 2,1 C 95 % 1010,1 hPa 0,0 l/m 3,3 km/h (1 Bft) SW 0,00 h 0,000 mm 0,0 UV-I 0 W/m 1,5 C 2,1 C 5,5 km/h (1 Bft) 97,94 %
07.11.2016 18:00 1,9 C 96 % 1010,3 hPa 0,0 l/m 4,9 km/h (1 Bft) SW 0,00 h 0,000 mm 0,0 UV-I 0 W/m 1,3 C 1,9 C 7,2 km/h (2 Bft) 98,76 %
07.11.2016 19:00 1,5 C 95 % 1010,5 hPa 0,0 l/m 2,1 km/h (1 Bft) S 0,00 h 0,000 mm 0,0 UV-I 0 W/m 0,8 C 1,5 C 4,1 km/h (1 Bft) 97,69 %
07.11.2016 20:00 0,7 C 96 % 1010,7 hPa 0,0 l/m 1,5 km/h (1 Bft) S 0,00 h 0,000 mm 0,0 UV-I 0 W/m 0,1 C 0,7 C 2,9 km/h (1 Bft) 99,05 %
07.11.2016 21:00 0,4 C 97 % 1010,8 hPa 0,0 l/m 0,8 km/h (0 Bft) S-SO 0,00 h 0,000 mm 0,0 UV-I 0 W/m 0,0 C 0,4 C 1,8 km/h (1 Bft) 97,75 %
07.11.2016 22:00 0,6 C 97 % 1010,6 hPa 0,0 l/m 1,1 km/h (0 Bft) S-SO 0,00 h 0,000 mm 0,0 UV-I 0 W/m 0,2 C 0,6 C 2,3 km/h (1 Bft) 99,18 %
07.11.2016 23:00 0,2 C 97 % 1010,5 hPa 0,0 l/m 1,8 km/h (1 Bft) SO 0,00 h 0,000 mm 0,0 UV-I 0 W/m -0,2 C 0,2 C 2,9 km/h (1 Bft) 97,96 %
08.11.2016 00:00 -0,2 C 98 % 1010,4 hPa 0,2 l/m 0,4 km/h (0 Bft) SO 0,00 h 0,000 mm 0,0 UV-I 0 W/m -0,5 C -0,2 C 1,0 km/h (0 Bft) 99,31 %
08.11.2016 01:00 -0,6 C 98 % 1010,0 hPa 0,0 l/m 1,0 km/h (0 Bft) SO 0,00 h 0,000 mm 0,0 UV-I 0 W/m -0,9 C -0,6 C 1,9 km/h (1 Bft) 98,10 %
08.11.2016 02:00 -1,0 C 98 % 1009,8 hPa 0,0 l/m 1,7 km/h (1 Bft) NO 0,00 h 0,000 mm 0,0 UV-I 0 W/m -1,2 C -1,0 C 3,0 km/h (1 Bft) 99,33 %
08.11.2016 03:00 -1,3 C 98 % 1009,5 hPa 0,0 l/m 1,8 km/h (1 Bft) N-NO 0,00 h 0,000 mm 0,0 UV-I 0 W/m -1,6 C -1,3 C 3,4 km/h (1 Bft) 98,24 %
08.11.2016 04:00 -1,4 C 98 % 1009,7 hPa 0,0 l/m 1,8 km/h (1 Bft) N-NO 0,00 h 0,000 mm 0,0 UV-I 0 W/m -1,7 C -1,4 C 3,7 km/h (1 Bft) 98,84 %
08.11.2016 05:00 -1,6 C 98 % 1009,7 hPa 0,0 l/m 3,6 km/h (1 Bft) O-NO 0,00 h 0,000 mm 0,0 UV-I 0 W/m -1,9 C -1,6 C 5,7 km/h (1 Bft) 97,61 %
08.11.2016 06:00 -1,7 C 98 % 1009,5 hPa 0,0 l/m 2,5 km/h (1 Bft) O-NO 0,00 h 0,000 mm 0,0 UV-I 5 W/m -2,0 C -1,7 C 4,2 km/h (1 Bft) 99,49 %
08.11.2016 07:00 -1,9 C 98 % 1009,9 hPa 0,0 l/m 1,4 km/h (1 Bft) W 0,00 h 0,000 mm 0,0 UV-I 17 W/m -2,1 C -1,9 C 3,4 km/h (1 Bft) 97,87 %
08.11.2016 08:00 -1,7 C 98 % 1010,2 hPa 0,0 l/m 2,3 km/h (1 Bft) SW 0,00 h 0,000 mm 0,0 UV-I 74 W/m -2,0 C -1,7 C 4,5 km/h (1 Bft) 99,46 %
08.11.2016 09:00 -1,3 C 98 % 1010,4 hPa 0,0 l/m 1,3 km/h (1 Bft) S 0,00 h 0,025 mm 0,0 UV-I 89 W/m -1,5 C -1,3 C 3,1 km/h (1 Bft) 97,94 %
08.11.2016 10:00 -0,8 C 98 % 1010,6 hPa 0,0 l/m 1,3 km/h (1 Bft) W-SW 0,00 h 0,026 mm 0,0 UV-I 96 W/m -1,1 C -0,8 C 3,0 km/h (1 Bft) 99,61 %
08.11.2016 11:00 -0,4 C 99 % 1010,7 hPa 0,0 l/m 2,6 km/h (1 Bft) W-SW 0,00 h 0,025 mm 0,0 UV-I 77 W/m -0,5 C -0,4 C 5,1 km/h (1 Bft) 97,79 %
08.11.2016 12:00 0,2 C 99 % 1010,8 hPa 0,0 l/m 1,4 km/h (1 Bft) SW 0,00 h 0,026 mm 0,0 UV-I 93 W/m 0,0 C 0,2 C 2,9 km/h (1 Bft) 99,43 %
08.11.2016 13:00 0,5 C 99 % 1010,9 hPa 0,0 l/m 1,2 km/h (1 Bft) SW 0,00 h 0,025 mm 0,0 UV-I 74 W/m 0,4 C 0,5 C 2,9 km/h (1 Bft) 98,17 %
08.11.2016 14:00 0,8 C 99 % 1010,8 hPa 0,0 l/m 1,8 km/h (1 Bft) SO 0,00 h 0,025 mm 0,0 UV-I 69 W/m 0,7 C 0,8 C 3,8 km/h (1 Bft) 99,06 %
08.11.2016 15:00 1,1 C 99 % 1010,8 hPa 0,0 l/m 1,1 km/h (1 Bft) SO 0,00 h 0,026 mm 0,0 UV-I 53 W/m 1,0 C 1,1 C 2,6 km/h (1 Bft) 98,45 %
08.11.2016 16:00 1,2 C 98 % 1010,9 hPa 0,0 l/m 1,1 km/h (1 Bft) S-SO 0,03 h 0,025 mm 0,0 UV-I 11 W/m 1,0 C 1,2 C 2,6 km/h (1 Bft) 98,94 %
08.11.2016 17:00 1,1 C 98 % 1011,4 hPa 0,0 l/m 2,0 km/h (1 Bft) O-SO 0,00 h 0,000 mm 0,0 UV-I 0 W/m 0,8 C 1,1 C 3,9 km/h (1 Bft) 98,50 %
08.11.2016 18:00 0,2 C 98 % 1011,9 hPa 0,0 l/m 0,4 km/h (0 Bft) O-SO 0,00 h 0,000 mm 0,0 UV-I 0 W/m -0,0 C 0,2 C 1,4 km/h (1 Bft) 98,42 %
08.11.2016 19:00 0,1 C 98 % 1012,2 hPa 0,0 l/m 1,2 km/h (1 Bft) O-SO 0,00 h 0,000 mm 0,0 UV-I 0 W/m -0,2 C 0,1 C 2,1 km/h (1 Bft) 98,60 %
08.11.2016 20:00 0,1 C 98 % 1012,3 hPa 0,0 l/m 1,7 km/h (1 Bft) O-SO 0,00 h 0,000 mm 0,0 UV-I 0 W/m -0,2 C 0,1 C 3,3 km/h (1 Bft) 98,89 %
08.11.2016 21:00 0,4 C 98 % 1012,3 hPa 0,0 l/m 2,7 km/h (1 Bft) O-SO 0,00 h 0,000 mm 0,0 UV-I 0 W/m 0,1 C 0,3 C 5,3 km/h (1 Bft) 98,67 %
08.11.2016 22:00 0,2 C 98 % 1012,4 hPa 0,0 l/m 2,4 km/h (1 Bft) SO 0,00 h 0,000 mm 0,0 UV-I 0 W/m -0,1 C 0,2 C 4,6 km/h (1 Bft) 98,61 %
08.11.2016 23:00 0,1 C 98 % 1012,4 hPa 0,0 l/m 1,9 km/h (1 Bft) SO 0,00 h 0,000 mm 0,0 UV-I 0 W/m -0,1 C 0,1 C 4,2 km/h (1 Bft) 98,33 %
09.11.2016 00:00 0,1 C 98 % 1012,0 hPa 0,0 l/m 2,5 km/h (1 Bft) SO 0,00 h 0,000 mm 0,0 UV-I 0 W/m -0,2 C 0,1 C 4,9 km/h (1 Bft) 98,60 %
09.11.2016 01:00 -0,1 C 98 % 1012,1 hPa 0,0 l/m 3,3 km/h (1 Bft) SW 0,00 h 0,000 mm 0,0 UV-I 0 W/m -0,4 C -0,1 C 6,2 km/h (2 Bft) 98,67 %
09.11.2016 02:00 -0,2 C 98 % 1011,8 hPa 0,0 l/m 2,9 km/h (1 Bft) S 0,00 h 0,000 mm 0,0 UV-I 0 W/m -0,5 C -0,2 C 5,9 km/h (2 Bft) 98,79 %
09.11.2016 03:00 -0,3 C 98 % 1011,2 hPa 0,0 l/m 3,0 km/h (1 Bft) S 0,00 h 0,000 mm 0,0 UV-I 0 W/m -0,6 C -0,3 C 6,3 km/h (2 Bft) 98,85 %
09.11.2016 04:00 -0,5 C 98 % 1010,9 hPa 0,0 l/m 2,3 km/h (1 Bft) S 0,00 h 0,000 mm 0,0 UV-I 0 W/m -0,8 C -0,5 C 5,2 km/h (1 Bft) 98,60 %
09.11.2016 05:00 -0,2 C 98 % 1010,6 hPa 0,0 l/m 1,6 km/h (1 Bft) S-SO 0,00 h 0,000 mm 0,0 UV-I 0 W/m -0,5 C -0,2 C 3,6 km/h (1 Bft) 98,81 %
09.11.2016 06:00 0,2 C 98 % 1010,3 hPa 0,0 l/m 1,2 km/h (1 Bft) S-SO 0,00 h 0,000 mm 0,0 UV-I 5 W/m -0,1 C 0,2 C 2,0 km/h (1 Bft) 98,24 %
09.11.2016 07:00 0,5 C 98 % 1010,3 hPa 0,0 l/m 1,8 km/h (1 Bft) O-NO 0,00 h 0,000 mm 0,0 UV-I 15 W/m 0,2 C 0,5 C 3,4 km/h (1 Bft) 98,89 %
09.11.2016 08:00 0,7 C 97 % 1010,3 hPa 0,0 l/m 1,4 km/h (1 Bft) S-SO 0,00 h 0,000 mm 0,0 UV-I 21 W/m 0,3 C 0,7 C 3,0 km/h (1 Bft) 97,89 %
09.11.2016 09:00 1,0 C 96 % 1010,2 hPa 0,2 l/m 1,9 km/h (1 Bft) S-SO 0,23 h 0,000 mm 0,6 UV-I 132 W/m 0,5 C 1,0 C 4,3 km/h (1 Bft) 99,10 %
09.11.2016 10:00 2,4 C 91 % 1009,6 hPa 0,0 l/m 3,2 km/h (1 Bft) SO 0,75 h 0,051 mm 0,7 UV-I 294 W/m 1,1 C 2,3 C 6,3 km/h (2 Bft) 98,05 %
09.11.2016 11:00 3,3 C 88 % 1008,8 hPa 0,0 l/m 3,5 km/h (1 Bft) O-NO 0,85 h 0,101 mm 1,0 UV-I 411 W/m 1,5 C 3,3 C 6,1 km/h (2 Bft) 97,91 %
09.11.2016 12:00 4,1 C 83 % 1008,0 hPa 0,0 l/m 3,5 km/h (1 Bft) NO 0,93 h 0,153 mm 1,0 UV-I 406 W/m 1,4 C 4,1 C 6,1 km/h (2 Bft) 99,28 %
09.11.2016 13:00 4,9 C 80 % 1007,3 hPa 0,0 l/m 5,9 km/h (2 Bft) NO 1,00 h 0,152 mm 0,8 UV-I 405 W/m 1,7 C 4,1 C 9,8 km/h (2 Bft) 97,68 %
09.11.2016 14:00 4,4 C 83 % 1006,9 hPa 0,0 l/m 9,3 km/h (2 Bft) O-NO 1,00 h 0,178 mm 0,5 UV-I 220 W/m 1,7 C 2,0 C 14,7 km/h (3 Bft) 97,97 %
09.11.2016 15:00 3,7 C 84 % 1006,6 hPa 0,0 l/m 9,4 km/h (2 Bft) O-NO 0,87 h 0,102 mm 0,0 UV-I 100 W/m 1,2 C 1,2 C 13,9 km/h (3 Bft) 98,21 %
09.11.2016 16:00 2,5 C 88 % 1006,2 hPa 0,0 l/m 5,0 km/h (1 Bft) NO 0,27 h 0,050 mm 0,0 UV-I 16 W/m 0,6 C 2,4 C 7,4 km/h (2 Bft) 98,76 %
09.11.2016 17:00 1,0 C 92 % 1006,1 hPa 0,0 l/m 1,9 km/h (1 Bft) NO 0,00 h 0,000 mm 0,0 UV-I 0 W/m -0,1 C 1,0 C 3,3 km/h (1 Bft) 97,50 %
09.11.2016 18:00 0,7 C 95 % 1005,9 hPa 0,0 l/m 0,4 km/h (0 Bft) NO 0,00 h 0,000 mm 0,0 UV-I 0 W/m -0,1 C 0,7 C 0,8 km/h (0 Bft) 99,07 %
09.11.2016 19:00 0,7 C 95 % 1005,8 hPa 0,0 l/m 0,8 km/h (0 Bft) NO 0,00 h 0,000 mm 0,0 UV-I 0 W/m 0,1 C 0,7 C 1,7 km/h (1 Bft) 97,26 %
09.11.2016 20:00 0,7 C 96 % 1006,1 hPa 0,0 l/m 0,8 km/h (0 Bft) NO 0,00 h 0,000 mm 0,0 UV-I 0 W/m 0,1 C 0,7 C 1,4 km/h (1 Bft) 99,21 %
09.11.2016 21:00 0,9 C 96 % 1006,4 hPa 0,0 l/m 1,5 km/h (1 Bft) NO 0,00 h 0,000 mm 0,0 UV-I 0 W/m 0,3 C 0,9 C 2,5 km/h (1 Bft) 97,33 %
09.11.2016 22:00 0,9 C 96 % 1006,5 hPa 0,0 l/m 1,4 km/h (1 Bft) S-SW 0,00 h 0,000 mm 0,0 UV-I 0 W/m 0,3 C 0,9 C 2,7 km/h (1 Bft) 98,92 %
09.11.2016 23:00 1,0 C 95 % 1006,5 hPa 0,0 l/m 1,1 km/h (1 Bft) O-NO 0,00 h 0,000 mm 0,0 UV-I 0 W/m 0,3 C 1,0 C 2,3 km/h (1 Bft) 98,24 %
10.11.2016 00:00 1,0 C 96 % 1006,5 hPa 0,0 l/m 1,1 km/h (0 Bft) S-SO 0,00 h 0,000 mm 0,0 UV-I 0 W/m 0,4 C 1,0 C 2,7 km/h (1 Bft) 99,10 %
10.11.2016 01:00 1,2 C 96 % 1006,6 hPa 1,2 l/m 2,0 km/h (1 Bft) S-SO 0,00 h 0,000 mm 0,0 UV-I 0 W/m 0,6 C 1,2 C 4,2 km/h (1 Bft) 98,02 %
10.11.2016 02:00 1,3 C 97 % 1006,8 hPa 1,4 l/m 1,7 km/h (1 Bft) S-SO 0,00 h 0,000 mm 0,0 UV-I 0 W/m 0,8 C 1,3 C 3,6 km/h (1 Bft) 98,98 %
10.11.2016 03:00 1,4 C 97 % 1006,3 hPa 0,2 l/m 1,1 km/h (1 Bft) S-SO 0,00 h 0,000 mm 0,0 UV-I 0 W/m 0,9 C 1,4 C 3,0 km/h (1 Bft) 98,52 %
10.11.2016 04:00 1,6 C 97 % 1006,2 hPa 0,4 l/m 1,1 km/h (1 Bft) S-SO 0,00 h 0,000 mm 0,0 UV-I 0 W/m 1,3 C 1,6 C 2,3 km/h (1 Bft) 98,20 %
10.11.2016 05:00 3,2 C 96 % 1006,1 hPa 0,0 l/m 10,2 km/h (2 Bft) SW 0,00 h 0,000 mm 0,0 UV-I 0 W/m 2,7 C -0,1 C 15,3 km/h (3 Bft) 98,64 %
10.11.2016 06:00 3,8 C 92 % 1006,0 hPa 0,0 l/m 8,3 km/h (2 Bft) SW 0,00 h 0,000 mm 0,0 UV-I 5 W/m 2,6 C 2,1 C 12,5 km/h (3 Bft) 98,32 %
10.11.2016 07:00 3,0 C 93 % 1006,2 hPa 0,0 l/m 3,3 km/h (1 Bft) SW 0,00 h 0,000 mm 0,0 UV-I 17 W/m 1,9 C 2,9 C 5,1 km/h (1 Bft) 99,03 %
10.11.2016 08:00 3,3 C 95 % 1007,0 hPa 0,2 l/m 6,5 km/h (2 Bft) SW 0,00 h 0,000 mm 0,0 UV-I 45 W/m 2,6 C 1,7 C 10,4 km/h (2 Bft) 97,84 %
10.11.2016 09:00 4,7 C 93 % 1007,9 hPa 1,2 l/m 17,6 km/h (3 Bft) W-SW 0,13 h 0,025 mm 0,3 UV-I 102 W/m 3,6 C -2,4 C 27,9 km/h (4 Bft) 99,16 %
10.11.2016 10:00 5,6 C 90 % 1008,4 hPa 0,0 l/m 16,8 km/h (3 Bft) W-SW 0,67 h 0,051 mm 0,6 UV-I 279 W/m 4,2 C -0,9 C 27,0 km/h (4 Bft) 97,60 %
10.11.2016 11:00 7,2 C 83 % 1008,0 hPa 0,0 l/m 21,4 km/h (4 Bft) W-SW 0,83 h 0,127 mm 0,9 UV-I 397 W/m 4,6 C -0,5 C 32,9 km/h (5 Bft) 98,64 %
10.11.2016 12:00 6,7 C 83 % 1008,0 hPa 1,2 l/m 23,7 km/h (4 Bft) W-SW 0,30 h 0,203 mm 0,7 UV-I 168 W/m 3,9 C -2,2 C 37,9 km/h (5 Bft) 98,44 %
10.11.2016 13:00 4,9 C 92 % 1008,8 hPa 1,2 l/m 19,9 km/h (4 Bft) W-SW 0,00 h 0,102 mm 0,0 UV-I 55 W/m 3,7 C -3,0 C 30,1 km/h (5 Bft) 98,01 %
10.11.2016 14:00 4,8 C 93 % 1009,3 hPa 0,0 l/m 14,6 km/h (3 Bft) SW 0,00 h 0,025 mm 0,0 UV-I 75 W/m 3,7 C -0,7 C 22,9 km/h (4 Bft) 98,97 %
10.11.2016 15:00 5,1 C 93 % 1009,5 hPa 0,2 l/m 9,1 km/h (2 Bft) SW 0,00 h 0,051 mm 0,0 UV-I 47 W/m 4,1 C 2,9 C 14,9 km/h (3 Bft) 97,88 %
10.11.2016 16:00 5,1 C 92 % 1009,7 hPa 0,6 l/m 9,5 km/h (2 Bft) S-SW 0,00 h 0,026 mm 0,0 UV-I 7 W/m 3,9 C 2,9 C 15,1 km/h (3 Bft) 97,99 %
10.11.2016 17:00 4,4 C 94 % 1010,1 hPa 1,0 l/m 7,4 km/h (2 Bft) W-SW 0,00 h 0,000 mm 0,0 UV-I 0 W/m 3,6 C 3,2 C 11,9 km/h (2 Bft) 98,34 %
10.11.2016 18:00 4,1 C 95 % 1010,5 hPa 0,6 l/m 6,1 km/h (2 Bft) SW 0,00 h 0,000 mm 0,0 UV-I 0 W/m 3,4 C 3,7 C 10,0 km/h (2 Bft) 98,06 %
10.11.2016 19:00 4,1 C 95 % 1010,6 hPa 0,2 l/m 8,8 km/h (2 Bft) S-SW 0,00 h 0,000 mm 0,0 UV-I 0 W/m 3,4 C 2,0 C 15,2 km/h (3 Bft) 98,34 %
10.11.2016 20:00 4,0 C 94 % 1010,8 hPa 0,0 l/m 10,1 km/h (2 Bft) S-SW 0,00 h 0,000 mm 0,0 UV-I 0 W/m 3,0 C 0,9 C 16,5 km/h (3 Bft) 97,88 %
10.11.2016 21:00 3,8 C 95 % 1010,9 hPa 0,0 l/m 2,2 km/h (1 Bft) S 0,00 h 0,000 mm 0,0 UV-I 0 W/m 3,0 C 3,8 C 4,9 km/h (1 Bft) 99,02 %
10.11.2016 22:00 3,6 C 96 % 1011,0 hPa 1,4 l/m 2,4 km/h (1 Bft) W 0,00 h 0,000 mm 0,0 UV-I 0 W/m 3,0 C 3,6 C 5,3 km/h (1 Bft) 97,14 %
10.11.2016 23:00 3,5 C 97 % 1011,1 hPa 0,0 l/m 0,6 km/h (0 Bft) NO 0,00 h 0,000 mm 0,0 UV-I 0 W/m 3,1 C 3,5 C 1,8 km/h (1 Bft) 98,83 %
11.11.2016 00:00 3,3 C 97 % 1011,1 hPa 0,8 l/m 2,5 km/h (1 Bft) O 0,00 h 0,000 mm 0,0 UV-I 0 W/m 2,9 C 3,3 C 4,2 km/h (1 Bft) 93,85 %
11.11.2016 01:00 3,4 C 98 % 1010,8 hPa 0,8 l/m 6,7 km/h (2 Bft) O-SO 0,00 h 0,000 mm 0,0 UV-I 0 W/m 3,1 C 2,7 C 10,3 km/h (2 Bft) 99,30 %
11.11.2016 02:00 3,0 C 98 % 1010,2 hPa 0,0 l/m 6,9 km/h (2 Bft) O 0,00 h 0,000 mm 0,0 UV-I 0 W/m 2,7 C 2,2 C 11,1 km/h (2 Bft) 97,51 %
11.11.2016 03:00 2,5 C 98 % 1009,7 hPa 0,0 l/m 4,3 km/h (1 Bft) O-SO 0,00 h 0,000 mm 0,0 UV-I 0 W/m 2,3 C 2,5 C 7,7 km/h (2 Bft) 99,09 %
11.11.2016 04:00 2,2 C 98 % 1009,5 hPa 0,0 l/m 0,7 km/h (0 Bft) O-NO 0,00 h 0,000 mm 0,0 UV-I 0 W/m 1,9 C 2,2 C 2,0 km/h (1 Bft) 97,63 %
11.11.2016 05:00 2,0 C 98 % 1009,2 hPa 0,0 l/m 2,7 km/h (1 Bft) O-NO 0,00 h 0,000 mm 0,0 UV-I 0 W/m 1,7 C 2,0 C 4,3 km/h (1 Bft) 99,01 %
11.11.2016 06:00 1,9 C 98 % 1008,9 hPa 0,0 l/m 8,0 km/h (2 Bft) O-NO 0,00 h 0,000 mm 0,0 UV-I 4 W/m 1,6 C -0,1 C 12,1 km/h (2 Bft) 97,60 %
11.11.2016 07:00 1,9 C 98 % 1009,1 hPa 0,0 l/m 7,8 km/h (2 Bft) O-NO 0,03 h 0,000 mm 0,0 UV-I 22 W/m 1,6 C 0,4 C 12,0 km/h (2 Bft) 98,65 %
11.11.2016 08:00 2,1 C 98 % 1009,7 hPa 0,0 l/m 4,0 km/h (1 Bft) O-NO 0,00 h 0,000 mm 0,0 UV-I 51 W/m 1,9 C 1,9 C 6,4 km/h (2 Bft) 97,46 %
11.11.2016 09:00 2,7 C 98 % 1010,4 hPa 0,0 l/m 2,3 km/h (1 Bft) N-NO 0,00 h 0,025 mm 0,0 UV-I 82 W/m 2,5 C 2,7 C 4,5 km/h (1 Bft) 98,81 %
11.11.2016 10:00 3,4 C 98 % 1011,3 hPa 0,2 l/m 3,2 km/h (1 Bft) W 0,00 h 0,026 mm 0,2 UV-I 124 W/m 3,1 C 3,4 C 5,5 km/h (1 Bft) 98,02 %
11.11.2016 11:00 3,9 C 97 % 1012,4 hPa 0,6 l/m 7,3 km/h (2 Bft) SW 0,00 h 0,051 mm 0,5 UV-I 102 W/m 3,4 C 2,8 C 11,7 km/h (2 Bft) 99,08 %
11.11.2016 12:00 4,3 C 96 % 1012,7 hPa 0,2 l/m 5,0 km/h (1 Bft) S-SW 0,00 h 0,050 mm 0,4 UV-I 128 W/m 3,7 C 3,8 C 8,3 km/h (2 Bft) 98,15 %
11.11.2016 13:00 4,7 C 95 % 1012,7 hPa 0,0 l/m 3,2 km/h (1 Bft) S-SW 0,00 h 0,051 mm 0,2 UV-I 86 W/m 3,9 C 4,7 C 6,3 km/h (2 Bft) 98,73 %
11.11.2016 14:00 4,9 C 95 % 1013,2 hPa 0,4 l/m 2,4 km/h (1 Bft) SO 0,03 h 0,026 mm 0,0 UV-I 53 W/m 4,2 C 4,8 C 4,8 km/h (1 Bft) 97,96 %
11.11.2016 15:00 5,4 C 94 % 1013,7 hPa 0,0 l/m 4,3 km/h (1 Bft) W-SW 0,33 h 0,025 mm 0,0 UV-I 66 W/m 4,6 C 5,2 C 7,5 km/h (2 Bft) 98,65 %
11.11.2016 16:00 5,2 C 95 % 1014,5 hPa 0,0 l/m 3,7 km/h (1 Bft) SW 0,00 h 0,025 mm 0,0 UV-I 7 W/m 4,3 C 5,2 C 5,9 km/h (2 Bft) 97,92 %
11.11.2016 17:00 4,9 C 96 % 1015,1 hPa 0,2 l/m 0,5 km/h (0 Bft) S-SW 0,00 h 0,000 mm 0,0 UV-I 0 W/m 4,2 C 4,9 C 1,6 km/h (1 Bft) 98,54 %
11.11.2016 18:00 4,6 C 97 % 1015,6 hPa 0,0 l/m 2,0 km/h (1 Bft) SW 0,00 h 0,000 mm 0,0 UV-I 0 W/m 4,1 C 4,6 C 3,8 km/h (1 Bft) 98,49 %
11.11.2016 19:00 4,3 C 96 % 1016,4 hPa 0,0 l/m 3,4 km/h (1 Bft) W-SW 0,00 h 0,000 mm 0,0 UV-I 0 W/m 3,8 C 4,3 C 5,4 km/h (1 Bft) 98,56 %
11.11.2016 20:00 4,3 C 97 % 1017,0 hPa 0,0 l/m 4,9 km/h (1 Bft) W-SW 0,00 h 0,000 mm 0,0 UV-I 0 W/m 3,9 C 4,2 C 7,5 km/h (2 Bft) 98,52 %
11.11.2016 21:00 4,1 C 97 % 1017,4 hPa 0,0 l/m 4,6 km/h (1 Bft) SW 0,00 h 0,000 mm 0,0 UV-I 0 W/m 3,7 C 4,1 C 6,8 km/h (2 Bft) 98,26 %
11.11.2016 22:00 4,1 C 97 % 1017,8 hPa 0,0 l/m 3,7 km/h (1 Bft) W-SW 0,00 h 0,000 mm 0,0 UV-I 0 W/m 3,7 C 4,1 C 5,4 km/h (1 Bft) 99,14 %
11.11.2016 23:00 4,1 C 97 % 1018,1 hPa 0,0 l/m 6,1 km/h (2 Bft) W-SW 0,00 h 0,000 mm 0,0 UV-I 0 W/m 3,7 C 3,6 C 9,4 km/h (2 Bft) 97,69 %
12.11.2016 00:00 4,0 C 96 % 1018,4 hPa 0,2 l/m 9,5 km/h (2 Bft) W 0,00 h 0,000 mm 0,0 UV-I 0 W/m 3,4 C 1,5 C 15,1 km/h (3 Bft) 98,77 %
12.11.2016 01:00 3,1 C 95 % 1018,7 hPa 1,4 l/m 9,3 km/h (2 Bft) W 0,00 h 0,000 mm 0,0 UV-I 0 W/m 2,4 C 0,7 C 15,1 km/h (3 Bft) 97,86 %
12.11.2016 02:00 2,6 C 96 % 1019,1 hPa 1,2 l/m 11,0 km/h (2 Bft) W 0,00 h 0,000 mm 0,0 UV-I 0 W/m 2,1 C -1,2 C 17,0 km/h (3 Bft) 99,31 %
12.11.2016 03:00 2,5 C 97 % 1019,2 hPa 0,8 l/m 7,0 km/h (2 Bft) W-SW 0,00 h 0,000 mm 0,0 UV-I 0 W/m 2,1 C 1,7 C 11,5 km/h (2 Bft) 97,62 %
12.11.2016 04:00 2,7 C 97 % 1019,6 hPa 0,6 l/m 4,7 km/h (1 Bft) W-SW 0,00 h 0,000 mm 0,0 UV-I 0 W/m 2,2 C 2,6 C 7,4 km/h (2 Bft) 99,09 %
12.11.2016 05:00 2,3 C 97 % 1020,1 hPa 1,2 l/m 2,6 km/h (1 Bft) NW 0,00 h 0,000 mm 0,0 UV-I 0 W/m 1,9 C 2,3 C 6,0 km/h (2 Bft) 97,82 %
12.11.2016 06:00 0,9 C 97 % 1020,8 hPa 0,4 l/m 1,3 km/h (1 Bft) NW 0,00 h 0,000 mm 0,0 UV-I 0 W/m 0,5 C 0,9 C 3,4 km/h (1 Bft) 98,89 %
12.11.2016 07:00 0,4 C 98 % 1021,4 hPa 0,0 l/m 0,7 km/h (0 Bft) NW 0,00 h 0,000 mm 0,0 UV-I 6 W/m 0,1 C 0,4 C 1,9 km/h (1 Bft) 97,83 %
12.11.2016 08:00 0,5 C 98 % 1022,0 hPa 0,0 l/m 1,9 km/h (1 Bft) W-SW 0,00 h 0,000 mm 0,0 UV-I 11 W/m 0,2 C 0,5 C 3,4 km/h (1 Bft) 98,77 %
12.11.2016 09:00 0,7 C 98 % 1022,5 hPa 0,0 l/m 2,5 km/h (1 Bft) W-SW 0,00 h 0,000 mm 0,0 UV-I 24 W/m 0,4 C 0,7 C 4,1 km/h (1 Bft) 97,79 %
12.11.2016 10:00 1,0 C 98 % 1022,8 hPa 0,6 l/m 3,0 km/h (1 Bft) W-SW 0,00 h 0,000 mm 0,0 UV-I 61 W/m 0,7 C 1,0 C 4,9 km/h (1 Bft) 98,82 %
12.11.2016 11:00 1,1 C 98 % 1022,8 hPa 0,6 l/m 1,7 km/h (1 Bft) W-NW 0,00 h 0,025 mm 0,0 UV-I 41 W/m 0,8 C 1,1 C 3,9 km/h (1 Bft) 97,68 %
12.11.2016 12:00 1,2 C 98 % 1022,5 hPa 0,8 l/m 3,9 km/h (1 Bft) W 0,00 h 0,026 mm 0,0 UV-I 58 W/m 0,9 C 1,2 C 7,0 km/h (2 Bft) 96,76 %
12.11.2016 13:00 1,2 C 98 % 1022,6 hPa 0,6 l/m 4,0 km/h (1 Bft) W 0,00 h 0,025 mm 0,0 UV-I 32 W/m 0,9 C 1,2 C 6,5 km/h (2 Bft) 98,04 %
12.11.2016 14:00 1,2 C 98 % 1022,7 hPa 0,4 l/m 4,4 km/h (1 Bft) W-SW 0,00 h 0,000 mm 0,0 UV-I 22 W/m 0,9 C 1,2 C 7,1 km/h (2 Bft) 98,44 %
12.11.2016 15:00 1,0 C 97 % 1022,8 hPa 0,4 l/m 3,5 km/h (1 Bft) W 0,00 h 0,000 mm 0,0 UV-I 10 W/m 0,7 C 1,0 C 6,0 km/h (2 Bft) 97,97 %
12.11.2016 16:00 1,0 C 98 % 1023,1 hPa 0,0 l/m 2,5 km/h (1 Bft) W-NW 0,00 h 0,000 mm 0,0 UV-I 4 W/m 0,7 C 1,0 C 4,2 km/h (1 Bft) 98,43 %
12.11.2016 17:00 1,2 C 98 % 1023,5 hPa 0,2 l/m 3,2 km/h (1 Bft) W 0,00 h 0,000 mm 0,0 UV-I 0 W/m 0,9 C 1,2 C 4,9 km/h (1 Bft) 98,21 %
12.11.2016 18:00 1,3 C 98 % 1023,8 hPa 0,0 l/m 1,7 km/h (1 Bft) W 0,00 h 0,000 mm 0,0 UV-I 0 W/m 1,0 C 1,3 C 3,5 km/h (1 Bft) 98,65 %
12.11.2016 19:00 1,4 C 97 % 1023,8 hPa 0,2 l/m 2,2 km/h (1 Bft) W-SW 0,00 h 0,000 mm 0,0 UV-I 0 W/m 1,0 C 1,4 C 4,1 km/h (1 Bft) 98,55 %
12.11.2016 20:00 1,4 C 97 % 1023,8 hPa 0,0 l/m 3,2 km/h (1 Bft) W 0,00 h 0,000 mm 0,0 UV-I 0 W/m 1,0 C 1,4 C 4,7 km/h (1 Bft) 98,03 %
12.11.2016 21:00 1,2 C 97 % 1023,9 hPa 0,0 l/m 3,2 km/h (1 Bft) W-SW 0,00 h 0,000 mm 0,0 UV-I 0 W/m 0,8 C 1,2 C 4,8 km/h (1 Bft) 98,96 %
12.11.2016 22:00 0,8 C 97 % 1023,9 hPa 0,0 l/m 3,0 km/h (1 Bft) W-SW 0,00 h 0,000 mm 0,0 UV-I 0 W/m 0,4 C 0,8 C 4,4 km/h (1 Bft) 98,34 %
12.11.2016 23:00 0,7 C 97 % 1024,0 hPa 0,0 l/m 0,5 km/h (0 Bft) W-SW 0,00 h 0,000 mm 0,0 UV-I 0 W/m 0,3 C 0,7 C 1,4 km/h (1 Bft) 99,15 %
13.11.2016 00:00 0,2 C 98 % 1023,9 hPa 0,0 l/m 0,6 km/h (0 Bft) W-SW 0,00 h 0,000 mm 0,0 UV-I 0 W/m -0,1 C 0,2 C 1,7 km/h (1 Bft) 98,23 %
13.11.2016 01:00 -0,0 C 98 % 1024,0 hPa 0,0 l/m 0,5 km/h (0 Bft) W-SW 0,00 h 0,000 mm 0,0 UV-I 0 W/m -0,3 C -0,0 C 1,3 km/h (1 Bft) 98,97 %
13.11.2016 02:00 0,3 C 98 % 1024,1 hPa 0,0 l/m 0,9 km/h (0 Bft) W-SW 0,00 h 0,000 mm 0,0 UV-I 0 W/m 0,0 C 0,3 C 2,0 km/h (1 Bft) 98,29 %
13.11.2016 03:00 0,4 C 98 % 1024,2 hPa 0,0 l/m 0,1 km/h (0 Bft) W-SW 0,00 h 0,000 mm 0,0 UV-I 0 W/m 0,1 C 0,4 C 0,7 km/h (0 Bft) 99,03 %
13.11.2016 04:00 0,4 C 98 % 1024,6 hPa 0,0 l/m 0,0 km/h (0 Bft) N 0,00 h 0,000 mm 0,0 UV-I 0 W/m 0,1 C 0,4 C 0,2 km/h (0 Bft) 97,85 %
13.11.2016 05:00 0,5 C 98 % 1024,9 hPa 0,0 l/m 0,6 km/h (0 Bft) W-SW 0,00 h 0,000 mm 0,0 UV-I 0 W/m 0,3 C 0,5 C 1,4 km/h (1 Bft) 99,51 %
13.11.2016 06:00 0,3 C 97 % 1025,4 hPa 0,0 l/m 3,6 km/h (1 Bft) W-SW 0,00 h 0,000 mm 0,0 UV-I 0 W/m -0,2 C 0,3 C 5,3 km/h (1 Bft) 97,92 %
13.11.2016 07:00 0,1 C 92 % 1026,1 hPa 0,0 l/m 6,1 km/h (2 Bft) NO 0,00 h 0,000 mm 0,0 UV-I 10 W/m -1,1 C -0,1 C 8,9 km/h (2 Bft) 99,21 %
13.11.2016 08:00 0,0 C 90 % 1027,0 hPa 0,0 l/m 6,9 km/h (2 Bft) O-NO 0,00 h 0,000 mm 0,0 UV-I 36 W/m -1,4 C -0,7 C 10,2 km/h (2 Bft) 97,86 %
13.11.2016 09:00 0,1 C 87 % 1027,7 hPa 0,0 l/m 10,7 km/h (2 Bft) O-NO 0,00 h 0,025 mm 0,0 UV-I 67 W/m -1,8 C -3,8 C 16,0 km/h (3 Bft) 99,50 %
13.11.2016 10:00 0,3 C 83 % 1027,9 hPa 0,0 l/m 12,4 km/h (3 Bft) O-NO 0,00 h 0,026 mm 0,5 UV-I 131 W/m -2,3 C -4,8 C 18,3 km/h (3 Bft) 97,74 %
13.11.2016 11:00 0,8 C 81 % 1027,8 hPa 0,0 l/m 11,3 km/h (2 Bft) O-NO 0,00 h 0,051 mm 0,6 UV-I 177 W/m -2,2 C -3,5 C 16,5 km/h (3 Bft) 99,34 %
13.11.2016 12:00 1,2 C 78 % 1027,8 hPa 0,2 l/m 10,6 km/h (2 Bft) O-NO 0,37 h 0,076 mm 0,6 UV-I 212 W/m -2,2 C -2,5 C 16,4 km/h (3 Bft) 98,02 %
13.11.2016 13:00 1,2 C 78 % 1027,8 hPa 0,0 l/m 8,6 km/h (2 Bft) O-NO 0,00 h 0,101 mm 0,5 UV-I 135 W/m -2,2 C -0,9 C 13,7 km/h (3 Bft) 99,41 %
13.11.2016 14:00 1,0 C 82 % 1027,8 hPa 0,0 l/m 5,6 km/h (1 Bft) O 0,00 h 0,051 mm 0,0 UV-I 88 W/m -1,8 C 0,7 C 9,1 km/h (2 Bft) 98,05 %
13.11.2016 15:00 0,9 C 83 % 1028,1 hPa 0,0 l/m 7,5 km/h (2 Bft) O-NO 0,00 h 0,051 mm 0,0 UV-I 62 W/m -1,6 C -0,5 C 12,2 km/h (3 Bft) 99,33 %
13.11.2016 16:00 0,3 C 85 % 1028,3 hPa 0,0 l/m 8,9 km/h (2 Bft) O-NO 0,07 h 0,025 mm 0,0 UV-I 10 W/m -1,8 C -2,2 C 13,8 km/h (3 Bft) 98,01 %
13.11.2016 17:00 -0,2 C 87 % 1028,8 hPa 0,0 l/m 8,2 km/h (2 Bft) NO 0,00 h 0,026 mm 0,0 UV-I 0 W/m -2,0 C -2,0 C 12,7 km/h (3 Bft) 99,28 %
13.11.2016 18:00 -0,7 C 88 % 1029,1 hPa 0,0 l/m 7,9 km/h (2 Bft) NO 0,00 h 0,000 mm 0,0 UV-I 0 W/m -2,5 C -2,2 C 12,4 km/h (3 Bft) 98,20 %
13.11.2016 19:00 -1,2 C 89 % 1029,4 hPa 0,0 l/m 7,2 km/h (2 Bft) NO 0,00 h 0,000 mm 0,0 UV-I 0 W/m -2,8 C -2,1 C 11,0 km/h (2 Bft) 99,16 %
13.11.2016 20:00 -1,4 C 89 % 1029,9 hPa 0,0 l/m 10,6 km/h (2 Bft) O-NO 0,00 h 0,000 mm 0,0 UV-I 0 W/m -3,0 C -5,5 C 16,3 km/h (3 Bft) 98,09 %
13.11.2016 21:00 -1,7 C 88 % 1030,2 hPa 0,0 l/m 10,5 km/h (2 Bft) O-NO 0,00 h 0,000 mm 0,0 UV-I 0 W/m -3,5 C -5,7 C 16,7 km/h (3 Bft) 99,29 %
13.11.2016 22:00 -2,2 C 90 % 1030,5 hPa 0,0 l/m 9,4 km/h (2 Bft) NO 0,00 h 0,000 mm 0,0 UV-I 0 W/m -3,7 C -5,3 C 15,2 km/h (3 Bft) 97,25 %
13.11.2016 23:00 -2,5 C 90 % 1030,8 hPa 0,0 l/m 11,1 km/h (2 Bft) NO 0,00 h 0,000 mm 0,0 UV-I 0 W/m -3,9 C -7,1 C 17,1 km/h (3 Bft) 99,70 %
Min-Datum _ 13.11.16 13.11.16 07.11.16 - 07.11.16 - - - - - 13.11.16 13.11.16 07.11.16 11.11.16
_ Min-Zeit 23:40 13:04 00:00 - 20:12 - - - - - 23:36 23:50 20:52 00:02
Minimum _ -2,6 C 75 % 1004,0 hPa - 0,0 km/h (0 Bft) - - - - - -4,1 C -9,9 C 0,0 km/h (0 Bft) 15,38 %
Max-Datum _ 10.11.16 08.11.16 13.11.16 10.11.16 10.11.16 - 09.11.16 10.11.16 09.11.16 09.11.16 10.11.16 11.11.16 10.11.16 07.11.16
_ Max-Zeit 11:52 10:48 23:56 02:00 12:34 - 15:20 12:00 11:36 11:26 11:20 15:19 12:30 00:00
Maximum _ 8,1 C 99 % 1031,0 hPa 1,4 l/m 31,3 km/h
W-SW (5 Bft)
- 0,07 h 0,203 mm 1,1 UV-I 566 W/m 5,0 C 5,6 C 61,2 km/h
W-SW (7 Bft)
100,00 %
Durchschnitt _ 1,8 C 95 % 1013,9 hPa #26,6 l/m 4,6 km/h (1 Bft) W-SW #9:02 h #2,743 mm 0,6 UV-I 90 W/m 1,0 C 1,0 C 7,7 km/h (2 Bft) 98,44 %